"TOA5","AWS1","CR1000","7964","CR1000.Std.14","CPU:AWS1_114.CR1","64363","TBL110"
"TIMESTAMP","RECORD","Wind_spd_WVc(1)","Wind_spd_WVc(2)","Air_Temp_Avg","Humidity_Avg","SW_upper_Wm2_Avg","Rain_Tot","Press_Avg","Issui_Tot","Depth_cm","SR50A_Raw","Quality","Ground_Temp_Avg(1)","Ground_Temp_Avg(2)","SW_lower_Wm2_Avg","Albedo_Avg","SWC_per(1)","SWC_per(2)","Period(1)","Period(2)"
"TS","RN","","","","","","","","","","","","","","","","","","",""
"","","WVc","WVc","Avg","Avg","Avg","Tot","Avg","Tot","Smp","Smp","Smp","Avg","Avg","Avg","Avg","Smp","Smp","Smp","Smp"
"2016-02-07 00:00:00",221389,0.457,254.7,-6.652,93.1,0,0,858.0594,0,32.85,2.887,198,1.135,1.828,0.2275278,0,51.27,59.32,33.61,35.52
"2016-02-07 00:10:00",221390,0.477,309.3,-6.688,93.9,0,0,858.2259,0,32.95,2.886,211,1.152,1.782,0.2275278,0,51.21,59.32,33.6,35.52
"2016-02-07 00:20:00",221391,0.252,192.6,-6.622,94.3,0,0,858.1226,0,32.72,2.888,196,1.155,1.795,0.2275278,0,51.21,59.32,33.6,35.52
"2016-02-07 00:30:00",221392,0.257,222.8,-6.662,94.2,0,0,858.2132,0,32.89,2.887,212,1.14,1.814,0.2237357,0,51.21,59.32,33.6,35.52
"2016-02-07 00:40:00",221393,0.222,312.8,-6.778,96.1,0,0,858.2364,0,32.89,2.887,212,1.122,1.819,0.2275278,0,51.27,59.32,33.61,35.52
"2016-02-07 00:50:00",221394,0.302,293.8,-6.735,96.1,0,0,858
"2016-02-07 00:50:00",221394,0.302,293.8,-6.735,96.1,0,0,858.4261,0,32.82,2.888,202,1.138,1.798,0.2275278,0,51.27,59.32,33.61,35.52
"2016-02-07 01:00:00",221395,0.268,37.75,-6.796,96,0,0,858.462,0,32.92,2.887,208,1.131,1.823,0.2275278,0,51.27,59.32,33.61,35.52
"2016-02-07 01:10:00",221396,0.358,346.4,-6.816,95.6,0,0,858.3713,0,33.04,2.886,219,1.11,1.828,0.2275278,0,51.21,59.32,33.6,35.52
"2016-02-07 01:20:00",221397,0.643,294.1,-6.895,96.1,0,0,858.4304,0,32.89,2.888,226,1.091,1.816,0.1933987,0,51.27,59.32,33.61,35.52
"2016-02-07 01:30:00",221398,0.698,284.5,-6.989,95.5,0,0,858.4852,0,32.56,2.892,189,1.097,1.802,0.09101113,0,51.27,59.32,33.61,35.52
"2016-02-07 01:40:00",221399,0.527,259.8,-7.048,93.9,0,0,858.4893,0,32.54,2.892,200,1.087,1.798,0.2199436,0,51.27,59.32,33.61,35.52
"2016-02-07 01:50:00",221400,0.411,261.8,-7.005,93.3,0,0,858.58,0,32.39,2.894,201,1.078,1.812,0.2275278,0,51.21,59.32,33.6,35.52
"2016-02-07 02:00:00",221401,0.805,284.4,-7.15,93.2,0,0,858.7296,0,32.4,2.895,204,1.072,1.768,0.1668537,0,51.21,59.32,33.6,35.52
"2016-02-07 02:10:00",221402,0.639,238.8,-7.244,92.7,0,0,858.7275,0,31.54,2.903,195,1.068,1.748,0.1441009,0,51.21,59.32,33.6,35.52
"2016-02-07 02:20:00",221403,0.511,235.9,-7.166,93.3,0,0,858.7211,0,31.57,2.903,189,1.068,1.746,0.2275278,0,51.21,59.32,33.6,35.52
"2016-02-07 02:30:00",221404,0.379,209.9,-7.21,92,0,0,858.6263,0,31.2,2.906,172,1.068,1.715,0.2275278,0,51.21,59.26,33.6,35.51
"2016-02-07 02:40:00",221405,0.272,271.9,-7.134,91.2,0,0,858.679,0,31.37,2.905,181,1.068,1.703,0.2275278,0,51.27,59.26,33.61,35.51
"2016-02-07 02:50:00",221406,0.194,231.9,-7.181,91.5,0,0,858.5125,0,31.27,2.906,189,1.068,1.715,0.2275278,0,51.27,59.26,33.61,35.51
"2016-02-07 03:00:00",221407,0.1,258.6,-7.194,91.4,0,0,858.4893,0,31.2,2.906,174,1.07,1.736,0.2161514,0,51.21,59.26,33.6,35.51
"2016-02-07 03:10:00",221408,0.191,248.2,-7.186,91.7,0,0,858.4852,0,31.29,2.906,190,1.068,1.715,0.2275278,0,51.21,59.26,33.6,35.51
"2016-02-07 03:20:00",221409,0.73,274.6,-7.41,92.5,0,0,858.4704,0,31.29,2.907,194,1.068,1.703,0.1592695,0,51.21,59.26,33.6,35.51
"2016-02-07 03:30:00",221410,0.464,266.6,-7.485,93,0,0,858.2955,0,31.34,2.907,194,1.068,1.686,0.2237357,0,51.21,59.26,33.6,35.51
"2016-02-07 03:40:00",221411,0.368,277.7,-7.53,92.6,0,0,858.3966,0,31.53,2.905,195,1.07,1.691,0.2275278,0,51.21,59.26,33.6,35.51
"2016-02-07 03:50:00",221412,0.418,269.6,-7.585,91.3,0,0,858.3207,0,31.8,2.903,198,1.068,1.682,0.2275278,0,51.21,59.26,33.6,35.51
"2016-02-07 04:00:00",221413,0.237,225.4,-7.621,91.1,0,0,858.3777,0,32.12,2.9,214,1.07,1.678,0.1251403,0,51.21,59.26,33.6,35.51
"2016-02-07 04:10:00",221414,0.264,225.7,-7.809,91.4,0,0,858.443,0,32.8,2.894,251,1.082,1.685,0.007584261,0,51.21,59.26,33.6,35.51
"2016-02-07 04:20:00",221415,0.259,190.6,-7.939,91.7,0,0,858.4852,0,33.17,2.891,270,1.101,1.712,0.1782301,0,51.21,59.26,33.6,35.51
"2016-02-07 04:30:00",221416,0.312,302.5,-8.13,91.5,0,0,858.4852,0,33.48,2.889,281,1.102,1.711,0.2275278,0,51.21,59.26,33.6,35.51
"2016-02-07 04:40:00",221417,0.187,202.9,-8.22,91.1,0,0,858.5146,0,33.46,2.889,280,1.111,1.724,0.2275278,0,51.21,59.26,33.6,35.51
"2016-02-07 04:50:00",221418,0.083,180,-8.21,90.9,0,0,858.4872,0,33.56,2.888,289,1.111,1.743,0.2275278,0,51.21,59.26,33.6,35.51
"2016-02-07 05:00:00",221419,0.314,267.8,-8.33,90.5,0,0,858.6903,0,33.08,2.894,242,1.112,1.734,0.2275287,0,51.27,59.26,33.61,35.51
"2016-02-07 05:10:00",221420,0.413,292.7,-8.46,90.5,0,0,858.7831,0,33.42,2.891,267,1.118,1.743,0.2275333,0,51.21,59.26,33.6,35.51
"2016-02-07 05:20:00",221421,0.371,303.1,-8.52,92.1,0,0,858.9453,0,32.65,2.899,197,1.117,1.755,0.2275331,0,51.27,59.26,33.61,35.51
"2016-02-07 05:30:00",221422,0.343,9.79,-8.54,93.1,0,0,858.9922,0,32.67,2.899,196,1.133,1.769,0.2275445,0,51.21,59.26,33.6,35.51
"2016-02-07 05:40:00",221423,0.2,278,-8.48,93.3,0,0,859.2719,0,32.34,2.902,192,1.143,1.776,0.2275547,0,51.21,59.26,33.6,35.51
"2016-02-07 05:50:00",221424,0.264,301.9,-8.56,93,0,0,859.3714,0,32.41,2.902,195,1.147,1.791,0.2161819,0,51.21,59.26,33.6,35.51
"2016-02-07 06:00:00",221425,0.229,237.9,-8.55,93.5,0,0,859.4476,0,32.46,2.901,195,1.15,1.793,0.2237695,0,51.21,59.26,33.6,35.51
"2016-02-07 06:10:00",221426,0.39,306.4,-8.63,91.9,0,0,859.5272,0,32.45,2.902,190,1.157,1.798,0.1972241,0,51.21,59.26,33.6,35.51
"2016-02-07 06:20:00",221427,0.596,258.6,-8.67,91.1,0,0,859.5402,0,32.28,2.904,190,1.161,1.797,0.1099929,0,51.21,59.26,33.6,35.51
"2016-02-07 06:30:00",221428,0.563,283.3,-8.77,89.6,0,0,859.7873,0,32.08,2.906,195,1.167,1.805,0.219988,0,51.21,59.26,33.6,35.51
"2016-02-07 06:40:00",221429,0.437,264.3,-8.78,89.2,0,0,859.8268,0,30.53,2.922,191,1.173,1.81,0.4930735,0,51.21,59.26,33.6,35.51
"2016-02-07 06:50:00",221430,0.352,273.5,-8.81,88.4,0,0,859.9294,0,31.21,2.915,211,1.176,1.818,1.657546,0,51.21,59.26,33.6,35.51
"2016-02-07 07:00:00",221431,0.036,342,-8.93,88.8,0.1731027,0,860.0771,0,32.57,2.903,229,1.189,1.833,3.527698,6.104,51.21,59.26,33.6,35.51
"2016-02-07 07:10:00",221432,0.092,316,-9.13,91.7,2.494313,0,860.1236,0,32.99,2.899,282,1.209,1.842,6.027634,3.913,51.21,59.26,33.6,35.51
"2016-02-07 07:20:00",221433,0.18,249.4,-9.12,93.2,12.49125,0,860.5016,0,33.21,2.897,292,1.214,1.844,11.82393,1.006,51.21,59.26,33.6,35.51
"2016-02-07 07:30:00",221434,0.675,299.2,-9.13,92,16.61045,0,860.3636,0,32.71,2.902,277,1.212,1.844,17.03226,1.031,51.21,59.26,33.6,35.51
"2016-02-07 07:40:00",221435,0.469,297.6,-9.07,91.9,39.67734,0,860.56,0,32.97,2.898,274,1.209,1.846,36.94778,0.941,51.21,59.26,33.6,35.51
"2016-02-07 07:50:00",221436,0.344,265.7,-9,92,24.69958,0,860.3893,0,32.91,2.899,254,1.209,1.847,22.96915,0.945,51.21,59.26,33.6,35.51
"2016-02-07 08:00:00",221437,0.024,297.5,-8.96,89.1,29.59783,0,860.5201,0,32.82,2.899,265,1.204,1.847,30.33602,1.019,51.21,59.26,33.6,35.51
"2016-02-07 08:10:00",221438,0.165,203.5,-8.74,87,65.80533,0,860.5959,0,33.36,2.893,282,1.204,1.847,57.48559,0.929,51.21,59.26,33.6,35.51
"2016-02-07 08:20:00",221439,0.406,190.5,-8.5,85.9,83.96611,0,860.598,0,33.14,2.892,274,1.19,1.813,77.55282,1.019,51.21,59.26,33.6,35.51
"2016-02-07 08:30:00",221440,0.345,171.3,-8.04,83.5,79.99997,0,860.598,0,32.11,2.902,218,1.157,1.77,81.99076,1.111,51.21,59.26,33.6,35.51
"2016-02-07 08:40:00",221441,0.61,314.8,-8.25,82.5,132.7394,0,860.5966,0,32.21,2.902,203,1.148,1.758,84.78785,0.801,51.21,59.26,33.6,35.51
"2016-02-07 08:50:00",221442,0.467,332,-8.13,84.2,98.09498,0,860.5787,0,32.62,2.896,243,1.188,1.825,108.9583,1.174,51.21,59.2,33.6,35.5
"2016-02-07 09:00:00",221443,0.729,342.7,-7.758,84,154.9314,0,860.6292,0,33.19,2.888,278,1.26,1.844,152.1371,0.985,51.21,59.26,33.6,35.51
"2016-02-07 09:10:00",221444,0.305,316,-7.295,78.93,178.9151,0,860.5184,0,32.64,2.892,221,1.178,1.796,149.3097,0.84,51.21,59.26,33.6,35.51
"2016-02-07 09:20:00",221445,0.444,341.7,-7.186,76.28,159.0545,0,860.511,0,32.48,2.894,220,1.163,1.773,132.217,0.832,51.27,59.26,33.61,35.51
"2016-02-07 09:30:00",221446,0.636,292.4,-7.224,74.63,167.1648,0,860.5092,0,32.45,2.895,186,1.157,1.816,134.3832,0.806,51.21,59.2,33.6,35.5
"2016-02-07 09:40:00",221447,0.664,15.75,-6.969,74.54,212.1294,0,860.5087,0,32.67,2.889,202,1.136,1.834,174.5751,0.827,51.21,59.2,33.6,35.5
"2016-02-07 09:50:00",221448,0.67,337.8,-6.807,74.12,221.6978,0,860.5087,0,32.19,2.896,193,1.175,1.799,172.9138,0.781,51.27,59.26,33.61,35.51
"2016-02-07 10:00:00",221449,0.441,303.6,-7.119,79.07,158.6128,0,860.5887,0,32.21,2.896,187,1.203,1.798,124.0862,0.775,51.21,59.26,33.6,35.51
"2016-02-07 10:10:00",221450,0.37,286.3,-7.182,82,138.3538,0,860.637,0,32.24,2.895,260,1.199,1.803,109.4977,0.797,51.21,59.26,33.6,35.51
"2016-02-07 10:20:00",221451,0.538,298,-7.164,82.3,170.3146,0,860.504,0,31.9,2.9,222,1.214,1.794,125.4692,0.737,51.21,59.2,33.6,35.5
"2016-02-07 10:30:00",221452,0.473,297.5,-7.486,84,122.955,0,860.4786,0,31.58,2.905,194,1.177,1.788,92.65456,0.754,51.21,59.2,33.6,35.5
"2016-02-07 10:40:00",221453,0.382,287.8,-7.572,84.8,109.7962,0,860.4496,0,30.19,2.919,192,1.142,1.783,88.37133,0.805,51.21,59.2,33.6,35.5
"2016-02-07 10:50:00",221454,0.43,325.1,-7.448,82.1,194.8638,0,860.4279,0,31.4,2.904,200,1.121,1.761,156.7352,0.82,51.21,59.2,33.6,35.5
"2016-02-07 11:00:00",221455,0.656,3.688,-6.894,75.57,311.4599,0,860.4213,0,30.5,2.91,196,1.166,1.719,205.9365,0.769,51.21,59.2,33.6,35.5
"2016-02-07 11:10:00",221456,0.549,68.59,-6.292,66.65,247.3242,0,860.4196,0,30.69,2.906,196,1.15,1.736,175.7441,0.718,51.21,59.2,33.6,35.5
"2016-02-07 11:20:00",221457,0.468,317.3,-6.596,71.59,95.66452,0,860.2633,0,30.47,2.912,194,1.15,1.757,77.29908,0.815,51.21,59.2,33.6,35.5
"2016-02-07 11:30:00",221458,0.479,13.95,-6.515,73.88,215.3629,0,860.1725,0,30.53,2.906,197,1.153,1.765,158.5518,0.767,51.21,59.2,33.6,35.5
"2016-02-07 11:40:00",221459,0.744,6.317,-5.9,67.14,265.3889,0,860.1662,0,30.04,2.91,188,1.14,1.758,206.2709,0.769,51.21,59.2,33.6,35.5
"2016-02-07 11:50:00",221460,0.653,312.2,-5.867,58.19,312.7296,0,860.1641,0,30.28,2.909,197,1.134,1.758,242.0792,0.772,51.21,59.2,33.6,35.5
"2016-02-07 12:00:00",221461,0.576,8.21,-6.101,58.83,228.754,0,860.1072,0,30.08,2.911,192,1.147,1.758,158.1121,0.692,51.16,59.2,33.58,35.5
"2016-02-07 12:10:00",221462,0.582,302.7,-5.672,58.73,442.324,0,860.1515,0,30.05,2.909,196,1.162,1.758,229.5277,0.556,51.21,59.2,33.6,35.5
"2016-02-07 12:20:00",221463,0.616,310,-5.212,55.47,613.6959,0,859.9977,0,31.33,2.893,201,1.191,1.743,274.6083,0.461,51.21,59.2,33.6,35.5
"2016-02-07 12:30:00",221464,0.518,345.1,-4.549,50.93,972.5986,0,859.9443,0,30.13,2.903,204,1.183,1.776,408.4287,0.42,51.21,59.2,33.6,35.5
"2016-02-07 12:40:00",221465,1.339,307.7,-4.706,46.85,980.2314,0,859.8889,0,30.54,2.9,189,1.1,1.772,417.6902,0.426,51.21,59.2,33.6,35.5
"2016-02-07 12:50:00",221466,0.79,297.4,-4.439,46.37,969.0144,0,859.8308,0,31.17,2.892,186,1.087,1.721,414.1895,0.427,51.21,59.2,33.6,35.5
"2016-02-07 13:00:00",221467,1.142,332,-4.452,45.98,931.2294,0,859.8231,0,30.13,2.904,186,1.168,1.785,400.934,0.43,51.16,59.2,33.58,35.5
"2016-02-07 13:10:00",221468,0.589,281.8,-4.686,45.17,910.1344,0,859.7683,0,30.6,2.899,195,1.137,1.756,395.1888,0.434,51.21,59.2,33.6,35.5
"2016-02-07 13:20:00",221469,0.905,339.6,-4.458,45.57,880.6687,0,859.7448,0,30.23,2.901,194,1.075,1.703,368.3374,0.418,51.21,59.2,33.6,35.5
"2016-02-07 13:30:00",221470,1.039,335.1,-4.877,41.46,848.9293,0,859.7697,0,30.83,2.898,190,1.062,1.664,332.5455,0.392,51.21,59.2,33.6,35.5
"2016-02-07 13:40:00",221471,0.499,302.9,-4.863,44.18,673.9245,0,859.746,0,31.38,2.894,189,1.051,1.62,254.9124,0.372,51.16,59.2,33.58,35.5
"2016-02-07 13:50:00",221472,0.493,290.3,-4.965,46.69,609.0381,0,859.8935,0,31.54,2.892,189,1.028,1.596,215.592,0.351,51.16,59.2,33.58,35.5
"2016-02-07 14:00:00",221473,0.559,294.7,-4.724,46.91,754.5228,0,859.8582,0,31.6,2.89,188,1.007,1.585,204.8151,0.271,51.21,59.2,33.6,35.5
"2016-02-07 14:10:00",221474,0.6,282,-4.906,47.18,515.7418,0,859.6573,0,31.25,2.895,196,0.998,1.58,158.6672,0.313,51.21,59.2,33.6,35.5
"2016-02-07 14:20:00",221475,0.593,275.1,-5.013,50.33,148.9077,0,859.7955,0,31.67,2.89,195,0.98,1.592,104.0469,1.54,51.16,59.2,33.58,35.5
"2016-02-07 14:30:00",221476,0.659,281.8,-5.302,46.31,36.34617,0,859.9827,0,31.55,2.894,194,1.006,1.621,53.93779,1.482,51.21,59.2,33.6,35.5
"2016-02-07 14:40:00",221477,0.678,288.4,-5.499,47.59,36.2376,0,860.0818,0,32.52,2.883,190,1.027,1.631,36.29567,1.002,51.16,59.2,33.58,35.5
"2016-02-07 14:50:00",221478,0.77,280.7,-5.441,45.31,35.36121,0,860.144,0,32.2,2.887,198,1.053,1.657,30.55365,0.865,51.21,59.2,33.6,35.5
"2016-02-07 15:00:00",221479,0.81,291.6,-5.702,45.17,32.5915,0,860.2115,0,32.48,2.885,197,0.979,1.645,28.00014,0.859,51.21,59.2,33.6,35.5
"2016-02-07 15:10:00",221480,0.658,279.6,-5.592,46.43,30.38556,0,860.2404,0,32.12,2.889,195,0.987,1.615,26.16088,0.861,51.16,59.2,33.58,35.5
"2016-02-07 15:20:00",221481,0.795,282.3,-5.672,46.51,28.13802,0,860.308,0,32.68,2.884,198,1.045,1.656,24.3988,0.867,51.16,59.2,33.58,35.5
"2016-02-07 15:30:00",221482,0.3,247.8,-5.765,48.41,25.82337,0,860.3286,0,32.17,2.889,200,1.109,1.683,22.43567,0.869,51.21,59.2,33.6,35.5
"2016-02-07 15:40:00",221483,0.473,269.6,-5.834,48.9,23.68308,0,860.3304,0,32.78,2.884,194,1.12,1.689,20.78114,0.878,51.16,59.2,33.58,35.5
"2016-02-07 15:50:00",221484,0.243,239.1,-5.924,47.17,21.71084,0,860.4318,0,32.68,2.884,198,1.1,1.655,19.22051,0.886,51.16,59.2,33.58,35.5
"2016-02-07 16:00:00",221485,0.231,229.9,-5.801,51.56,19.93683,0,860.5897,0,32.43,2.887,202,1.092,1.7,17.72585,0.889,51.21,59.2,33.6,35.5
"2016-02-07 16:10:00",221486,0.273,281.3,-5.933,51.15,17.25043,0,860.6799,0,33.05,2.881,208,1.125,1.733,15.99969,0.928,51.21,59.2,33.6,35.5
"2016-02-07 16:20:00",221487,0.405,240.4,-6.119,53.36,15.26603,0,860.8941,0,32.87,2.884,201,1.134,1.764,14.5412,0.953,51.21,59.14,33.6,35.48
"2016-02-07 16:30:00",221488,0.433,100.5,-6.094,53.33,13.1433,0,860.8923,0,31.88,2.894,192,1.067,1.779,13.17303,1.005,51.16,59.14,33.58,35.48
"2016-02-07 16:40:00",221489,0.13,232.1,-6.265,56.23,11.00852,0,860.9246,0,32.52,2.888,200,1.079,1.784,11.18294,1.016,51.21,59.2,33.6,35.5
"2016-02-07 16:50:00",221490,0.231,198.5,-6.308,55.38,9.09385,0,860.9307,0,32.71,2.887,199,1.107,1.727,9.458134,1.042,51.21,59.14,33.6,35.48
"2016-02-07 17:00:00",221491,0.32,251,-6.506,57.78,6.534631,0,861.1596,0,32.79,2.887,196,1.12,1.727,7.631272,1.175,51.16,59.2,33.58,35.5
"2016-02-07 17:10:00",221492,0.162,257,-6.661,57.96,3.377677,0,861.2224,0,32.62,2.89,194,1.146,1.75,5.288878,1.653,51.21,59.2,33.6,35.5
"2016-02-07 17:20:00",221493,0.221,305.6,-6.912,59.34,0.2398715,0,861.1826,0,32.43,2.893,194,1.204,1.789,2.908172,3.262,51.16,59.14,33.58,35.48
"2016-02-07 17:30:00",221494,0.055,187.4,-7.231,60.05,0,0,861.2547,0,32.26,2.897,194,1.224,1.813,0.3829794,0,51.21,59.14,33.6,35.48
"2016-02-07 17:40:00",221495,0.312,257.7,-7.444,61.46,0,0,861.262,0,32.52,2.895,198,1.223,1.773,0.007584115,0,51.16,59.14,33.58,35.48
"2016-02-07 17:50:00",221496,0.037,208.5,-7.668,63.22,0,0,861.324,0,32.39,2.898,196,1.205,1.771,0,0,51.16,59.14,33.58,35.48
"2016-02-07 18:00:00",221497,0.037,247,-7.93,65.39,0,0,861.282,0,32.7,2.896,198,1.166,1.772,0,0,51.21,59.2,33.6,35.5
"2016-02-07 18:10:00",221498,0.004,278.3,-8.29,67.6,0,0,861.4232,0,32.8,2.898,181,1.139,1.731,0,0,51.21,59.2,33.6,35.5
"2016-02-07 18:20:00",221499,0.063,183.7,-8.67,69.2,0,0,861.5117,0,32.43,2.903,197,1.128,1.741,0,0,51.16,59.14,33.58,35.48
"2016-02-07 18:30:00",221500,0.136,200,-9.05,68.85,0,0,861.5202,0,32.54,2.904,195,1.111,1.757,0,0,51.21,59.14,33.6,35.48
"2016-02-07 18:40:00",221501,0.024,208.8,-9.2,69.23,0,0,861.5497,0,32.66,2.903,191,1.112,1.758,0,0,51.16,59.14,33.58,35.48
"2016-02-07 18:50:00",221502,0.365,203.1,-9.38,70.9,0,0,861.6256,0,32.63,2.905,201,1.115,1.758,0,0,51.16,59.14,33.58,35.48
"2016-02-07 19:00:00",221503,0.148,203.1,-9.72,72.74,0,0,861.7773,0,32.64,2.906,200,1.115,1.758,0,0,51.16,59.14,33.58,35.48
"2016-02-07 19:10:00",221504,0.099,195.5,-9.86,73.92,0,0,861.7267,0,32.83,2.906,200,1.138,1.761,0,0,51.16,59.14,33.58,35.48
"2016-02-07 19:20:00",221505,0.258,199.5,-10,75.16,0,0,861.537,0,32.51,2.908,200,1.154,1.763,0,0,51.16,59.14,33.58,35.48
"2016-02-07 19:30:00",221506,0.368,193.8,-10.1,75.26,0,0,861.7247,0,32.74,2.907,194,1.174,1.791,0,0,51.16,59.14,33.58,35.48
"2016-02-07 19:40:00",221507,0.434,193.7,-10.13,76.2,0,0,861.8233,0,32.48,2.91,201,1.202,1.835,0,0,51.16,59.14,33.58,35.48
"2016-02-07 19:50:00",221508,0.083,185.3,-10.19,77.4,0,0,861.8448,0,32.52,2.909,202,1.223,1.853,0,0,51.16,59.14,33.58,35.48
"2016-02-07 20:00:00",221509,0.304,187.6,-10.35,78.26,0,0,861.8536,0,32.73,2.909,194,1.232,1.824,0,0,51.16,59.14,33.58,35.48
"2016-02-07 20:10:00",221510,0.335,189,-10.38,79.12,0,0,861.8734,0,32.85,2.908,197,1.24,1.786,0,0,51.16,59.14,33.58,35.48
"2016-02-07 20:20:00",221511,0.241,188.9,-10.5,79.78,0,0,861.9152,0,32.58,2.91,193,1.244,1.793,0,0,51.21,59.14,33.6,35.48
"2016-02-07 20:30:00",221512,0.102,189.2,-10.23,80.2,0,0,861.863,0,32.53,2.91,201,1.253,1.78,0.03034739,0,51.16,59.14,33.58,35.48
"2016-02-07 20:40:00",221513,0.172,188.6,-10.57,80.3,0,0,861.899,0,32.82,2.909,196,1.274,1.759,0,0,51.21,59.14,33.6,35.48
"2016-02-07 20:50:00",221514,0.355,189,-10.66,81.7,0,0,861.8779,0,32.52,2.912,208,1.268,1.761,0,0,51.16,59.14,33.58,35.48
"2016-02-07 21:00:00",221515,0.397,189.5,-10.78,81.8,0,0,861.8652,0,32.72,2.911,191,1.278,1.761,0,0,51.16,59.14,33.58,35.48
"2016-02-07 21:10:00",221516,0.415,191.8,-10.81,82,0,0,861.8632,0,32.54,2.913,199,1.262,1.761,0,0,51.16,59.14,33.58,35.48
"2016-02-07 21:20:00",221517,0.326,190,-10.88,81.8,0,0,862.0508,0,32.5,2.913,203,1.218,1.761,0,0,51.16,59.14,33.58,35.48
"2016-02-07 21:30:00",221518,0.298,192.7,-11.07,82.2,0,0,861.9896,0,32.85,2.912,192,1.189,1.761,0,0,51.16,59.14,33.58,35.48
"2016-02-07 21:40:00",221519,0.311,192.5,-11.34,83.7,0,0,861.8758,0,32.63,2.915,198,1.171,1.761,0,0,51.16,59.14,33.58,35.48
"2016-02-07 21:50:00",221520,0.327,189,-11.24,83.8,0,0,861.9306,0,32.7,2.914,197,1.161,1.761,0,0,51.16,59.14,33.58,35.48
"2016-02-07 22:00:00",221521,0.318,188.1,-11.32,83.8,0,0,861.9264,0,32.8,2.914,196,1.155,1.761,0,0,51.16,59.14,33.58,35.48
"2016-02-07 22:10:00",221522,0.48,190,-11.37,84.5,0,0,861.8669,0,32.84,2.914,184,1.155,1.761,0,0,51.16,59.14,33.58,35.48
"2016-02-07 22:20:00",221523,0.264,190.3,-11.4,85.1,0,0,861.8658,0,32.7,2.914,195,1.155,1.761,0,0,51.16,59.14,33.58,35.48
"2016-02-07 22:30:00",221524,0.341,190,-11.42,85.2,0,0,862.0374,0,32.89,2.913,194,1.155,1.761,0,0,51.16,59.14,33.58,35.48
"2016-02-07 22:40:00",221525,0.356,190,-11.45,86,0,0,862.0643,0,32.65,2.915,192,1.159,1.764,0,0,51.16,59.14,33.58,35.48
"2016-02-07 22:50:00",221526,0.156,189.6,-11.43,85.8,0,0,862.1012,0,32.54,2.916,198,1.172,1.782,0,0,51.16,59.14,33.58,35.48
"2016-02-07 23:00:00",221527,0.041,189.9,-11.22,85.8,0,0,862.1242,0,32.51,2.915,184,1.197,1.813,0,0,51.16,59.14,33.58,35.48
"2016-02-07 23:10:00",221528,0.116,189.9,-11.25,85.1,0,0,862.1249,0,32.81,2.913,193,1.216,1.855,0,0,51.16,59.14,33.58,35.48
"2016-02-07 23:20:00",221529,0.223,189.8,-11.3,85.3,0,0,861.9876,0,32.66,2.915,186,1.229,1.877,0,0,51.1,59.14,33.57,35.48
"2016-02-07 23:30:00",221530,0.31,189.4,-11.27,84.9,0,0,862.0815,0,32.46,2.917,197,1.237,1.886,0,0,51.16,59.14,33.58,35.48
"2016-02-07 23:40:00",221531,0.206,184.7,-11.41,85.6,0,0,862.1234,0,32.85,2.912,178,1.242,1.899,0,0,51.1,59.14,33.57,35.48
"2016-02-07 23:50:00",221532,0.4,184.8,-11.4,85.1,0,0,861.951,0,32.85,2.914,193,1.243,1.899,0.01138413,0,51.1,59.08,33.57,35.47
